Home > Time Zones > World Clock > Weather > India > Bundi > Past weeks

Flag for India Weather past 2 weeks in Bundi, Rajasthan, India

Now
63 °F

Haze.


Feels Like: 63 °F
Forecast: 56 / 83 °F
Wind: 7 mph from East

Location: Jaipur / Sanganer

Current Time: Mar 5, 2015 at 4:37:32 AM

Latest Report: Mar 5, 2015 at 2:00 AM


Visibility: 1 mi

Pressure: 30.01 "Hg

Humidity: 64%

Dew point: 50 °F

Location of BundiLocation

Historic Weather in Bundi — Graph

°F

Bundi temperature yesterday

Maximum temperature yesterday: 77 °F (at 4:30 PM)
Minimum temperature yesterday: 57 °F (at 7:00 AM)
Average temperature yesterday: 68 °F

Past Weeks' High & Low Weather Summary

 TemperatureHumidityPressure
High95 °F (Feb 23, 7:30 PM)100% (Mar 1, 9:00 AM)30.09 "Hg (Mar 1, 9:00 AM)
Low57 °F (Mar 3, 7:00 AM)11% (Feb 26, 5:00 PM)29.77 "Hg (Feb 25, 4:00 PM)
Average72 °F47%29.93 "Hg
* Reported Feb 18 2:30 AM — Mar 5 2:00 AM, Bundi, Weather by CustomWeather, © 2015

Note: Actual official high and low records may vary slightly from our data, if they occured in-between our weather recording intervals... More about our weather records

Advertising

Bundi weather history for previous 24 hours

 ConditionsComfort  
Time TempWeatherWind HumidityBarometerVisibility
2:00 AM
Thu, Mar 5
63 °FHaze.7 mph64%30.01 "Hg1 mi
1:00 AM63 °FHaze.6 mph64%30.01 "Hg1 mi
12:00 AM63 °FHaze.5 mph68%30.01 "Hg1 mi
10:00 PM
Wed, Mar 4
64 °FHaze.5 mph60%30.01 "Hg2 mi
9:00 PM68 °FHaze.10 mph46%30.01 "Hg2 mi
7:30 PM70 °FClear.3 mph35%29.95 "Hg4 mi
7:00 PM72 °FPassing clouds.6 mph31%29.95 "Hg4 mi
6:00 PM75 °FPassing clouds.5 mph25%29.95 "Hg4 mi
5:30 PM75 °FScattered clouds.6 mph24%29.92 "Hg4 mi
5:00 PM77 °FScattered clouds.5 mph24%29.92 "Hg4 mi
4:30 PM77 °FScattered clouds.8 mph24%29.92 "Hg4 mi
4:00 PM75 °FScattered clouds.6 mph25%29.92 "Hg4 mi
3:30 PM75 °FScattered clouds.7 mph27%29.95 "Hg3 mi
2:30 PM73 °FScattered clouds.9 mph33%29.95 "Hg2 mi
2:00 PM73 °FScattered clouds.9 mph36%29.98 "Hg2 mi
1:00 PM72 °FHaze.5 mph44%30.01 "Hg2 mi
12:00 PM70 °FHaze.6 mph46%30.01 "Hg2 mi
11:30 AM68 °FHaze.5 mph56%30.04 "Hg2 mi
11:00 AM70 °FHaze.6 mph53%30.04 "Hg2 mi
10:00 AM68 °FScattered clouds.6 mph56%30.04 "Hg2 mi
8:30 AM63 °FFog.3 mph68%30.01 "Hg1 mi
7:30 AM57 °FFog.No wind82%29.98 "Hg1 mi
7:00 AM57 °FFog.3 mph88%29.98 "Hg1 mi
5:00 AM59 °FFog.6 mph82%29.92 "Hg1 mi
Weather by CustomWeather, © 2015

See weather overviewHow to use our weather pages